#timestamp,LO_Frequency,Hit,StdDev 
1632067215.4,286046996.2,N
1632067235.2,286046995.3,N
1632067255.1,286046995.5,N
1632067256.0,286046995.5,N
1632067275.8,286046993.8,Y
1632067295.6,286046999.5,P
1632067315.5,286046997.7,N
1632067335.3,286046997.4,N
1632067355.2,286046997.1,N
1632067375.9,286046997.3,N
1632067395.7,286046997.4,N
1632067415.6,286046997.1,Y
1632067435.4,286046996.5,P
1632067455.2,286046996.5,P
1632067475.1,286046999.3,N
1632067476.0,286046999.3,N
1632067495.8,286047001.1,N
1632067515.7,286047001.1,N
1632067535.5,286046999.7,N
1632067555.3,286047000.0,N
1632067575.2,286046999.9,N
1632067595.0,286047002.8,N
1632067595.9,286047002.8,N
1632067615.8,286047002.2,N
1632067635.6,286047002.1,N
1632067655.4,286047001.5,N
1632067675.3,286047003.5,N
1632067695.1,286047006.0,N
1632067715.9,286047004.8,N
1632067735.7,286047003.3,N
1632067755.5,286047003.4,N
1632067775.4,286047003.4,N
1632067795.2,286047003.7,N
1632067815.0,286047004.2,N
1632067815.9,286047004.2,N
1632067835.8,286047003.8,N
1632067855.6,286047001.6,N
1632067875.5,286046999.7,N
1632067895.3,286047002.1,N
1632067915.1,286047004.3,N
1632067935.9,286047006.0,N
1632067955.7,286047006.0,N
1632067975.6,286047003.3,N
1632067995.4,286047004.1,N
1632068015.2,286047004.0,N
1632068035.1,286047001.4,N
1632068036.0,286047001.4,N
1632068055.8,286047003.9,N
1632068075.6,286047002.4,N
1632068095.5,286047002.8,N
1632068115.3,286047002.2,N
1632068135.2,286047001.9,N
1632068155.9,286047002.7,N
1632068175.7,286047000.4,N
1632068195.6,286046998.7,N
1632068215.4,286047000.5,N
1632068235.2,286046999.9,N
1632068255.1,286046998.2,N
1632068256.0,286046998.2,N
1632068275.8,286047000.6,N
1632068295.7,286047000.0,N
1632068315.5,286047000.1,N
1632068335.3,286047002.6,N
1632068355.2,286047001.9,N
1632068375.0,286047003.8,N
1632068375.9,286047003.8,N
1632068395.8,286047003.2,N
1632068415.7,286047004.0,N
1632068435.6,286047003.1,N
1632068455.4,286047003.4,N
1632068475.2,286047005.4,N
1632068495.1,286047003.5,N
1632068496.0,286047003.5,N
1632068515.8,286047001.4,N
1632068535.7,286047002.0,N
1632068555.5,286047002.0,N
1632068575.3,286047001.5,N
1632068595.2,286047001.7,N
1632068615.0,286047002.6,N
1632068615.9,286047002.6,N
1632068635.7,286046999.7,N
1632068655.6,286047002.3,N
1632068675.4,286047002.4,N
1632068695.3,286047001.2,N
1632068715.1,286047000.0,N
1632068735.8,286047002.4,N
1632068755.7,286047001.9,N
1632068775.5,286047001.9,N
1632068795.4,286047005.8,Y
1632068815.2,286047002.6,P
1632068835.0,286047001.7,P
1632068835.9,286047001.7,P
1632068855.8,286047001.7,Y
1632068875.6,286047000.7,P
1632068895.5,286046998.1,N
1632068915.3,286046998.9,N
1632068935.1,286046999.2,N
1632068955.9,286046999.6,N
1632068975.7,286046996.8,N
1632068995.5,286046997.0,N
1632069015.4,286046999.0,N
1632069035.2,286046999.6,N
1632069055.1,286046996.7,N
1632069056.0,286046996.7,N
1632069075.8,286046999.5,N
1632069095.6,286046998.4,N
1632069115.5,286046998.1,N
1632069135.3,286047001.0,N
1632069155.1,286046998.7,N
1632069175.9,286046998.1,N
1632069195.7,286046996.5,N
1632069215.6,286046998.4,N
1632069235.4,286046997.7,N
1632069255.2,286046999.0,N
1632069275.1,286046999.3,N
1632069276.0,286046999.3,N
1632069295.8,286046999.1,N
1632069315.7,286046999.5,N
1632069335.5,286046999.4,N
1632069355.3,286046995.3,Y
1632069375.2,286046999.2,P
1632069395.0,286046998.2,P
1632069395.9,286046998.2,P
1632069415.7,286046998.6,Y
1632069435.6,286047002.1,P
1632069455.4,286047002.6,N
1632069475.3,286047002.7,N
1632069495.1,286046999.7,N
1632069496.0,286046999.7,N
1632069515.8,286047000.6,N
1632069535.7,286047000.4,N
1632069555.5,286047000.4,N
1632069575.4,286047000.1,N
1632069595.2,286047000.4,N
1632069615.0,286047000.3,N
1632069615.9,286047000.3,N
1632069635.8,286047000.3,N
1632069655.6,286047000.8,N
1632069675.4,286047001.2,N
1632069695.3,286046998.3,N
1632069715.1,286046998.3,N
1632069735.9,286047001.2,N
1632069755.7,286046998.4,N
1632069775.5,286047000.3,N
1632069795.4,286046998.7,N
1632069815.2,286046997.2,N
1632069835.0,286046995.0,Y
1632069836.0,286046995.0,P
1632069855.8,286046995.2,N
1632069875.6,286046995.8,N
1632069895.5,286046995.5,N
1632069915.3,286046997.7,N
1632069935.1,286046997.3,N
1632069955.9,286046997.3,N
1632069975.7,286046999.2,N
1632069995.6,286046997.3,N
1632070015.4,286046999.6,N
1632070035.2,286046999.1,N
1632070055.1,286046997.6,N
1632070056.0,286046997.6,N
1632070075.8,286046996.5,N
1632070095.6,286046996.9,N
1632070115.5,286046996.7,N
1632070135.3,286046997.0,N
1632070155.2,286046996.5,N
1632070175.9,286046997.3,N
1632070195.7,286046997.9,N
1632070245.6,286046994.9,E
1632070255.5,286046999.4,N
1632070275.4,286047002.7,P
1632070295.2,286047002.4,N
1632070315.0,286047001.7,N
1632070315.9,286047001.7,N
1632070335.8,286047002.5,N
1632070355.6,286047002.4,N
1632070375.5,286047001.7,N
1632070395.3,286047003.9,Y
1632070415.1,286047000.5,P
1632070435.9,286047000.2,N
1632070455.7,286047002.7,P
1632070475.5,286047000.1,N
1632070495.4,286047000.3,N
1632070515.2,286046999.9,N
1632070535.1,286046999.8,N
1632070536.0,286046999.8,N
1632070555.8,286047000.5,N
1632070575.6,286047000.4,N
1632070595.5,286047000.2,N
1632070615.3,286047001.2,N
1632070635.1,286047001.1,N
1632070655.9,286047000.7,N
1632070675.7,286047000.5,N
1632070695.6,286046999.8,N
1632070715.4,286047000.5,N
1632070735.2,286047001.0,N
1632070755.1,286047001.1,N
1632070756.0,286047001.1,N
1632070775.8,286047002.6,Y
1632070795.7,286047002.5,P
